Location: Ravensburg
(47.7866°N, 9.6124°E)
Time: 20:53:47
(UTC+02:00)

ITAMSAT 1 - Pass Details

Date: 20 March 2026
Orbit: 782 x 793 km, 98.7° (Epoch: 14 April)

Event Time Altitude Azimuth Distance (km) Brightness Sun altitude
Exits shadow 22:51:26 21° 291° (WNW) 1,730 9.8 -37.6°
Drops below altitude 10° 22:54:05 10° 320° (NW) 2,356 10.8 -37.9°
Sets 22:56:54 0° 335° (NNW) 3,292 11.8 -38.1°
